{"data":{"norad_id":64282,"intl_designator":"2025-120AC","name":"STARLINK-34381","alt_names":[],"object_type":"PAYLOAD","status":"ACTIVE","operator":null,"country":"US","launch_date":"2025-06-04","launch_site_code":"AFWTR","launch_vehicle":null,"mission":null,"orbit_class":"UNKNOWN","rcs_meters":null,"size_class":null,"mass_kg":null,"dimensions":null,"purposes":["comms"],"wikipedia_slug":null,"has_3d_model":false,"image_url":null,"decayed_at":null,"tle_current":{"epoch":"2026-05-25T02:25:05.652768Z","epoch_age_seconds":80496,"freshness":"FRESH","line1":"1 64282U 25120AC  26145.10075987  .00013946  00000+0  48204-3 0  9990","line2":"2 64282  53.1572 121.8622 0001416 108.0404 252.0751 15.30203537 55593","mean_motion":15.30203537,"eccentricity":0.0001416,"inclination_deg":53.1572,"raan_deg":121.8622,"arg_perigee_deg":108.0404,"mean_anomaly_deg":252.0751,"bstar":0.00048204,"rev_number":5559,"period_min":94.105128185964,"perigee_km":474.2340754376,"apogee_km":476.17494175283,"semimajor_km":6853.3415085952,"source":"CELESTRAK","updated_at":"2026-05-25T13:38:20.363912Z"}}}